Terminal Aerodrome Forecast
Issued by NWS

Home | Current Version | Previous Version | Text Only | Print | Product List | Glossary On
Versions: 1 2 3 4 5 6 7 8 9 10 11 12 13
000
FTUS46 KSGX 210300 AAA
TAFPSP
TAF AMD
KPSP 210310Z 2103/2124 32018G25KT P6SM SKC
     FM210500 32012KT P6SM SKC
     FM210700 VRB05KT P6SM SKC=

USA.gov is the U.S. government's official web portal to all federal, state and local government web resources and services.